Wind_Speed
11 11 11 11 11 11 11 11 12 12 12 13 14 14 15 15 16 17 17 18 18 19 19 19 20 20 19 19 20 20 19 19 19 18 18 17 17 18 19 20 22 23 24 25 25 25 26 27 28 29 31 31 31 31 30 29 28 27 26 25 23 21 20 18 18 21 23 22 22 22 22 24 25 24 26 28 28 29 28 25 26 29 31 32 33
11 11 11 11 11 11 11 11 11 11 11 11 11 12 12 13 14 14 15 16 16 17 18 18 19 20 20 20 21 21 21 21 21 20 20 20 19 19 19 19 20 21 23 24 25 25 25 26 27 28 29 30 31 31 31 30 29 29 28 27 25 24 22 20 19 20 23 24 23 23 24 24 24 24 25 25 25 26 27 25 25 26 28 31 33
13 13 12 12 11 11 11 12 11 11 10 10 10 10 10 11 11 12 13 14 14 15 16 17 18 18 19 20 20 21 22 22 22 22 22 22 21 21 21 21 20 21 21 23 24 25 25 26 26 27 28 29 31 31 31 31 30 30 30 28 27 26 24 23 21 21 22 24 24 24 25 25 24 24 25 25 25 26 26 25 25 23 23 27 31
15 15 14 14 13 13 13 13 13 13 12 11 11 10 10 9 9 10 11 11 12 13 14 16 17 18 18 19 19 20 21 21 22 23 23 23 23 23 23 23 23 22 22 22 23 24 25 25 26 27 27 28 30 31 31 31 31 31 31 30 29 28 27 25 24 23 23 24 25 25 25 26 26 26 26 26 26 27 26 25 26 25 24 24 26
16 16 16 16 15 15 15 14 14 15 15 15 14 13 12 11 10 10 10 11 11 12 13 14 16 17 18 19 19 19 20 21 21 22 23 23 24 24 24 25 24 24 23 23 23 23 24 25 26 26 27 27 28 30 31 32 31 31 31 31 31 30 29 27 26 25 24 25 26 26 26 26 26 27 28 28 27 28 28 27 27 27 26 25 25
17 17 16 17 17 17 17 16 16 16 16 16 17 16 15 14 13 12 12 11 12 12 13 14 15 16 17 19 20 20 20 20 21 21 22 23 24 24 25 25 26 26 25 24 24 23 23 24 26 27 27 27 28 29 30 31 32 32 32 32 32 31 30 29 29 28 27 26 26 27 27 27 27 27 28 29 28 29 30 30 29 28 27 27 28
18 18 18 17 18 18 18 18 18 18 17 17 17 18 18 18 17 16 15 15 14 14 14 14 15 16 18 19 20 21 22 22 22 22 22 23 23 24 25 25 26 27 27 26 25 24 23 23 24 26 27 27 28 29 30 31 32 33 34 33 33 33 32 31 31 30 29 28 28 28 28 28 28 28 28 28 29 29 30 30 30 30 29 29 30
19 19 19 18 18 18 18 19 19 19 19 19 19 19 20 20 20 20 19 19 18 17 16 16 16 16 18 20 21 22 23 23 23 23 23 23 23 24 25 25 26 27 27 28 27 26 25 23 23 24 26 27 28 28 29 30 31 32 34 34 34 35 34 33 33 32 31 30 29 29 29 29 29 29 29 29 29 29 29 30 31 32 32 32 33
20 20 20 20 20 20 20 20 20 20 21 21 21 21 21 22 22 22 22 22 22 21 20 20 19 18 18 19 21 23 24 24 24 24 24 24 24 24 25 25 25 26 27 28 28 27 26 25 23 23 24 26 27 28 28 30 31 32 33 34 35 36 36 36 35 34 33 31 30 30 30 31 31 30 30 30 30 30 30 30 32 33 33 33 34
21 21 21 21 21 21 21 21 21 22 22 22 23 23 23 23 24 24 24 24 24 24 24 23 22 22 22 21 22 23 25 25 25 25 25 25 25 25 25 25 25 26 26 27 28 28 27 26 25 24 23 24 26 27 28 29 30 31 32 33 34 35 37 37 37 36 35 33 32 32 31 32 32 31 31 31 31 31 31 31 32 33 33 33 33
21 22 22 22 22 22 22 22 23 23 23 24 24 24 24 25 25 26 26 26 26 26 26 26 25 24 24 24 23 24 25 26 27 27 27 26 26 26 25 26 26 26 26 27 27 27 27 26 26 25 24 24 24 26 27 28 29 30 32 33 34 34 35 37 38 38 37 36 35 34 33 32 32 32 31 32 32 32 32 32 33 33 33 33 32
22 23 23 23 23 24 23 23 23 23 24 25 25 26 26 26 26 27 27 28 28 28 28 28 28 27 26 26 26 25 26 27 28 28 28 28 27 27 26 26 26 26 26 26 27 27 27 26 26 26 25 24 24 24 26 27 28 29 31 33 34 35 35 36 37 38 39 38 37 36 35 34 33 33 32 32 32 33 33 34 34 33 33 33 33
24 24 24 24 24 25 25 25 24 24 25 25 25 26 27 27 27 28 28 29 29 30 30 29 29 29 29 29 29 28 27 27 28 28 29 29 28 27 27 26 27 26 26 26 26 26 26 26 25 26 26 25 25 24 24 25 26 28 30 32 34 35 35 35 36 37 38 38 38 38 37 35 34 34 33 32 32 33 33 34 34 34 33 34 35
25 25 26 26 26 26 26 26 26 26 26 26 26 26 27 28 28 29 30 30 30 30 30 30 30 30 31 31 31 31 30 29 29 29 29 30 29 28 27 27 27 26 26 25 26 26 26 25 25 25 25 25 26 26 26 26 26 26 27 30 33 35 35 35 35 35 36 37 38 38 38 37 36 35 34 33 33 33 33 33 33 33 33 34 35
26 26 26 27 27 27 27 27 27 27 27 28 27 27 28 28 29 30 30 31 32 31 31 30 30 31 31 32 32 33 32 31 32 32 31 30 30 29 29 28 27 26 25 25 25 25 25 25 24 23 24 25 26 26 27 27 28 27 27 28 30 32 34 36 36 35 35 36 36 37 38 38 38 37 36 35 34 33 33 33 33 33 33 33 34
28 28 28 27 27 27 27 28 28 29 29 29 28 28 29 29 29 30 31 31 32 33 32 31 31 31 32 32 32 33 33 32 33 34 33 32 31 30 30 29 27 26 26 25 24 24 24 24 23 23 23 24 25 26 28 28 29 29 30 29 29 30 32 35 36 36 35 35 35 36 37 38 38 38 37 37 36 35 34 34 35 35 34 34 34
30 30 29 29 29 29 28 28 29 29 30 30 29 30 30 30 31 31 31 32 32 33 33 32 32 31 32 33 32 32 33 33 33 35 35 34 32 31 31 30 28 26 26 25 24 23 24 24 24 24 24 24 25 27 29 31 31 31 31 31 30 30 30 32 35 36 35 34 34 35 36 37 38 38 38 38 37 36 35 35 35 35 35 34 35
31 31 31 30 30 30 30 30 30 31 31 31 31 31 32 32 33 34 34 34 34 34 34 33 33 32 32 33 33 33 34 34 34 35 37 36 35 33 32 31 29 27 26 25 24 23 24 23 24 26 27 27 28 29 32 34 35 35 33 32 32 31 31 31 32 34 34 34 34 35 36 37 37 38 38 38 38 37 36 36 35 35 35 35 35
31 32 32 32 32 31 31 31 31 32 33 34 34 33 33 34 35 36 37 37 36 36 36 36 35 34 34 33 33 34 34 34 34 35 37 37 36 35 33 32 30 28 26 26 25 25 25 24 24 26 29 29 30 32 35 37 40 40 37 33 32 31 31 31 31 32 33 34 34 34 35 36 37 37 38 38 38 38 37 36 36 35 35 35 36
31 32 32 32 32 32 32 31 31 32 34 34 34 34 35 36 36 37 37 37 37 37 37 37 37 36 36 36 35 35 35 36 36 36 37 37 36 35 33 32 31 28 27 26 26 26 27 26 25 27 30 31 32 35 37 39 42 44 41 35 32 30 30 30 30 31 32 33 34 34 34 35 36 36 36 37 37 37 37 37 37 36 36 36 36
32 32 33 33 33 32 33 32 32 33 33 34 34 35 35 36 37 37 37 36 37 37 37 38 38 38 39 39 39 38 38 37 37 36 37 37 36 34 33 33 31 29 27 27 27 28 29 29 28 29 31 33 35 37 39 41 44 46 43 37 32 30 29 28 29 30 31 32 33 33 33 34 35 35 35 36 36 37 37 37 38 38 37 37 37
34 33 32 33 33 33 33 33 34 34 34 34 35 35 36 36 36 36 36 36 37 37 37 38 38 38 39 39 39 39 38 38 38 37 37 37 36 34 34 33 32 29 27 27 28 29 30 31 31 32 33 34 36 38 40 42 45 47 44 36 32 29 28 27 28 29 30 31 32 33 33 33 34 34 34 35 36 36 36 37 38 38 38 37 38
35 34 34 33 33 33 34 34 35 35 34 34 34 35 35 36 36 36 36 36 37 37 38 38 38 38 38 38 38 39 38 38 38 37 37 37 36 34 33 33 31 29 27 27 28 29 30 31 32 33 34 35 37 38 40 42 45 46 42 34 30 28 26 26 26 27 28 29 30 31 32 32 32 33 33 34 35 35 36 36 37 37 37 38 38
37 37 36 35 35 35 35 35 35 35 34 33 34 34 34 34 35 36 36 36 37 37 37 38 38 37 37 38 39 39 39 38 39 39 39 37 35 34 33 33 31 29 27 27 28 28 30 31 32 33 34 35 36 37 39 41 44 45 40 31 28 27 25 25 25 26 27 27 28 29 30 30 30 31 32 33 33 34 35 35 36 36 37 37 37
39 38 37 37 36 35 35 34 33 32 32 32 32 32 33 33 34 35 36 36 36 36 36 37 37 37 37 38 39 40 41 41 42 42 40 37 36 35 33 33 31 29 27 27 27 27 28 29 30 31 31 33 35 36 39 40 42 44 39 29 25 26 25 25 25 25 26 26 26 27 28 28 29 29 30 31 32 33 34 34 34 35 36 36 37
38 37 35 34 32 31 30 31 30 30 30 31 31 32 32 33 33 34 36 36 35 35 36 37 37 37 37 38 39 40 42 43 44 45 43 40 38 37 34 32 31 28 27 27 27 26 27 28 28 28 29 31 34 35 38 40 42 42 38 29 24 24 25 25 24 25 25 25 25 25 26 26 27 28 28 29 30 31 32 32 33 33 34 35 35
35 34 32 30 28 28 29 30 31 30 30 31 31 32 33 34 34 34 35 36 36 36 36 38 38 39 38 38 39 40 42 43 44 46 46 45 42 39 35 32 30 29 27 26 26 26 26 27 27 27 28 31 33 35 37 39 40 40 36 29 25 24 24 24 24 24 25 25 25 25 25 26 26 27 27 27 28 29 30 31 31 32 32 33 34
34 34 33 30 28 29 30 32 32 33 33 32 33 33 35 36 36 36 37 37 37 37 38 39 40 41 40 39 39 39 41 43 43 45 47 48 46 40 35 32 31 29 27 25 25 25 26 26 27 27 27 29 32 34 36 38 40 39 35 28 25 25 25 24 24 24 25 25 25 25 25 26 27 27 27 26 27 28 29 30 30 30 31 32 33
35 35 35 34 32 32 33 34 35 36 36 36 36 36 38 39 39 40 40 40 40 41 41 41 42 43 43 42 40 39 41 42 42 44 47 49 47 41 35 32 31 29 26 25 24 24 25 26 26 27 27 28 30 31 33 36 38 38 34 27 23 24 25 24 24 24 24 25 25 26 26 26 27 28 27 27 27 27 28 29 29 29 29 30 32
36 36 36 37 37 36 36 38 38 39 39 39 38 39 40 41 42 43 42 43 44 44 43 43 44 44 45 44 42 41 42 42 42 43 46 48 46 41 34 31 31 29 26 25 24 24 24 25 26 27 28 29 30 31 32 34 36 37 35 28 22 21 23 24 24 24 24 25 25 26 26 26 27 28 28 28 28 27 28 28 28 28 29 30 30
39 38 38 39 40 40 40 40 40 41 41 41 41 42 43 43 44 44 44 44 44 42 41 43 45 46 46 46 44 43 43 43 42 43 45 46 44 39 33 31 30 28 26 24 23 23 24 25 26 27 28 29 30 31 31 33 35 36 35 30 24 21 22 23 24 23 23 24 25 26 26 26 27 27 28 29 28 28 28 28 28 28 29 29 29
42 41 41 41 42 43 43 42 42 42 43 43 42 43 44 45 45 45 46 46 46 42 39 41 45 46 46 46 45 44 43 43 43 44 43 43 41 37 33 31 30 29 27 25 23 24 25 26 26 27 28 28 29 30 30 32 34 34 33 31 26 23 22 23 23 23 24 24 25 26 27 27 27 27 27 28 28 29 29 29 28 28 28 29 29
46 46 45 45 46 45 45 45 45 44 45 46 44 43 44 47 47 46 47 47 47 45 43 43 44 44 44 44 44 44 43 43 44 45 44 41 38 35 32 31 31 30 28 26 25 25 26 27 27 28 28 28 29 29 29 31 33 34 32 29 27 24 23 22 23 23 23 24 25 26 28 28 28 27 27 28 28 29 29 28 28 28 29 29 29
48 48 49 49 49 48 48 48 48 47 47 48 48 46 46 47 48 47 47 47 46 45 45 44 43 43 43 42 40 42 44 44 44 46 44 40 37 34 32 31 31 31 28 27 26 27 27 28 28 28 29 28 28 28 29 30 32 33 32 30 27 26 24 23 23 23 22 23 24 26 27 28 29 28 27 28 29 29 29 28 28 28 29 29 29
48 49 51 51 51 52 52 52 51 49 49 49 49 48 48 48 47 47 47 47 46 44 42 42 42 42 43 41 39 40 43 45 46 46 45 40 37 34 32 31 32 31 28 27 28 28 28 28 28 29 29 28 27 27 28 29 32 33 33 31 29 28 26 25 24 23 23 22 23 25 26 26 28 29 29 29 29 29 29 29 29 29 30 30 29
51 52 54 54 54 54 54 52 51 50 50 49 49 48 49 49 48 46 46 47 46 42 40 41 41 41 42 42 41 41 43 45 47 48 46 42 38 34 32 31 31 30 28 28 29 29 29 29 29 29 29 27 26 26 27 29 31 33 34 33 30 29 28 27 25 24 24 23 23 23 24 24 24 26 29 31 31 29 29 29 30 30 30 30 29
54 55 55 55 54 54 53 52 50 51 51 52 50 48 48 49 48 46 46 46 44 40 40 39 38 38 40 42 43 43 43 45 47 47 46 43 40 35 32 31 31 29 28 28 28 29 29 29 29 30 29 27 25 25 27 29 31 33 35 34 32 29 28 28 26 25 26 25 23 23 23 22 22 22 25 29 31 30 29 29 30 31 30 29 29
56 56 55 55 54 54 53 52 52 52 52 53 53 51 49 49 47 45 45 45 42 39 40 39 38 37 39 42 44 44 44 45 47 48 46 44 41 35 31 31 30 28 27 27 28 28 29 29 29 30 29 26 24 24 26 29 31 33 35 36 34 31 28 28 26 25 25 25 24 23 23 23 22 22 23 26 29 31 31 30 30 30 30 30 29
56 56 55 53 53 53 53 53 53 52 51 51 52 51 50 49 47 44 44 44 42 40 40 39 38 38 40 43 45 45 45 47 49 48 46 43 39 34 31 30 29 27 26 26 27 28 30 30 31 31 28 25 24 24 26 29 31 32 34 36 35 32 29 28 27 25 25 25 25 24 23 23 24 24 23 24 27 30 31 31 30 30 29 30 29
56 54 54 53 52 53 54 53 53 53 52 51 51 51 49 48 47 44 43 42 41 40 39 39 39 39 40 43 46 46 47 47 46 44 42 41 37 32 30 28 26 25 25 26 27 28 30 32 32 30 27 25 24 24 26 28 30 32 34 36 36 33 30 28 27 26 25 26 27 26 24 24 24 25 25 25 26 28 31 31 30 29 29 29 29
56 55 56 56 55 55 54 53 52 52 51 50 50 49 48 47 46 45 43 41 40 39 38 39 40 40 40 43 45 46 46 46 44 42 41 38 33 28 26 25 24 25 26 27 28 28 29 31 31 28 26 25 25 25 25 27 29 32 34 36 36 34 30 28 27 26 25 25 26 26 25 24 25 26 26 26 26 27 30 31 30 29 29 29 28
58 58 58 57 56 54 53 52 52 51 50 49 48 47 47 46 45 44 43 41 40 40 39 40 41 40 40 42 44 45 45 45 43 42 39 34 28 24 23 23 24 25 27 27 27 27 28 29 29 27 25 25 25 25 26 26 28 31 33 35 36 34 30 27 27 27 26 24 24 24 23 23 25 27 27 27 27 27 29 31 30 29 29 29 28
58 58 57 55 54 53 53 52 52 51 49 48 47 46 46 46 45 44 44 42 41 41 41 41 41 41 42 43 45 44 43 42 41 40 37 32 28 25 23 23 25 27 27 27 27 28 29 29 28 27 26 25 25 26 26 26 27 29 31 34 35 34 30 26 26 27 27 26 26 25 23 23 24 26 27 27 28 28 29 30 30 29 28 28 28
56 56 56 54 53 53 52 52 51 50 49 48 47 47 47 47 47 47 46 44 42 41 42 42 42 42 43 44 45 44 42 40 40 39 37 33 31 29 28 28 29 30 31 31 29 29 31 30 28 26 25 24 24 25 26 26 27 29 31 32 33 32 30 26 25 26 27 27 28 27 25 24 25 25 25 26 28 28 29 30 31 29 28 27 27
55 55 55 55 54 53 52 51 50 49 48 48 47 47 47 47 48 49 48 46 44 42 42 43 43 43 43 44 45 44 42 40 38 37 35 34 34 35 34 32 31 32 36 37 35 33 33 32 29 27 24 23 23 24 25 25 26 28 30 31 31 30 28 26 25 25 26 27 28 27 25 24 24 23 22 24 27 28 29 30 30 29 27 27 27
56 56 55 55 54 53 52 50 49 48 47 47 46 47 48 48 47 48 49 48 46 44 43 43 44 44 44 44 45 44 43 40 37 35 34 35 37 39 40 38 36 38 42 44 41 37 36 34 31 27 23 21 22 23 24 24 26 27 28 29 30 29 27 25 25 25 25 26 27 26 23 22 22 21 19 21 25 27 28 30 30 28 27 26 27
57 56 55 54 53 52 51 49 48 47 46 46 46 46 47 47 47 47 47 46 45 44 43 43 43 44 44 45 45 44 43 42 40 38 37 37 38 41 43 43 42 44 48 47 43 38 36 35 30 25 21 20 20 22 23 24 25 26 27 28 28 27 26 24 24 25 25 25 25 25 23 21 20 20 18 18 21 24 26 27 29 28 27 26 26
56 55 54 53 52 51 50 48 47 46 46 46 45 46 45 45 45 46 46 45 44 44 43 42 42 44 44 44 45 45 44 42 41 40 40 40 40 40 41 42 43 44 46 46 41 37 35 32 28 22 19 18 18 20 22 23 24 26 26 27 27 26 25 24 24 24 24 24 24 24 22 20 19 19 17 17 18 22 24 25 27 27 27 27 26
54 53 52 51 50 50 48 48 47 47 46 46 46 46 46 45 44 45 46 46 46 47 46 45 43 44 44 44 45 45 44 43 41 40 41 42 42 40 38 37 36 36 37 40 40 36 32 28 23 19 17 16 17 19 21 22 23 25 26 27 26 25 24 24 24 23 23 23 22 23 22 19 18 18 17 16 16 19 22 24 25 26 27 27 27
49 49 48 47 46 45 45 45 45 46 46 46 46 47 48 47 46 47 49 49 49 50 50 49 47 45 45 46 46 45 44 43 42 41 41 43 44 43 40 37 35 33 32 34 37 36 32 26 21 18 16 16 17 18 19 20 22 23 25 26 26 25 24 24 24 23 23 22 21 21 21 20 18 18 18 16 15 16 18 21 24 26 27 28 27
42 42 41 41 40 40 39 40 40 41 42 43 43 44 45 44 42 43 45 46 47 47 48 49 48 48 48 48 48 47 45 44 44 43 43 44 45 44 41 39 38 37 35 33 32 32 29 24 20 18 16 16 17 18 19 20 21 22 24 25 25 25 25 25 24 24 23 22 21 20 20 20 20 19 18 18 17 16 16 17 19 21 24 26 26
Wind_Direction
359 1 2 5 8 11 15 19 23 26 28 33 37 40 42 43 42 41 41 40 38 35 33 31 29 26 21 16 12 8 2 355 349 341 334 326 317 309 302 297 294 291 289 287 285 284 283 281 278 276 274 273 272 271 270 267 265 264 264 266 266 265 262 258 256 258 260 261 260 262 263 256 253 252 245 238 233 228 231 235 232 229 227 226 227
347 348 348 350 353 356 358 0 5 9 11 16 22 29 33 35 35 35 34 34 32 30 29 27 26 24 22 18 15 13 9 5 359 352 345 338 331 324 316 308 301 295 291 288 286 284 282 282 281 279 277 275 273 270 269 268 265 263 262 264 265 265 263 259 255 255 259 260 258 258 261 262 260 259 257 254 246 237 239 240 235 232 233 232 231
340 339 338 338 340 341 342 343 346 350 352 355 1 11 17 21 24 26 27 26 25 22 20 18 18 18 17 15 13 12 10 8 5 0 355 349 343 336 329 323 315 307 299 293 289 286 284 282 280 279 278 276 275 272 269 267 266 263 261 261 263 264 264 261 257 254 255 259 258 256 257 259 260 260 260 259 254 249 249 249 245 241 238 234 233
338 336 334 332 331 331 331 332 333 334 334 336 341 349 355 359 4 9 13 15 17 14 10 9 9 9 8 7 7 6 6 5 4 2 359 355 351 346 339 333 327 321 313 304 296 290 287 284 281 279 278 277 276 274 272 269 266 263 261 260 261 263 263 262 260 256 254 257 259 257 255 256 255 256 257 257 256 253 252 254 255 252 246 240 238
338 335 332 329 327 325 324 324 324 325 325 326 328 331 334 336 340 346 351 355 0 3 1 360 360 360 359 358 358 359 359 359 359 358 358 356 353 350 346 341 335 330 324 317 308 298 291 287 284 280 278 276 275 274 273 271 268 264 261 259 259 261 263 263 262 259 256 255 258 258 256 255 254 253 254 254 254 254 252 252 254 253 250 248 248
338 336 333 330 328 325 324 322 319 319 319 319 321 321 322 322 324 328 331 334 340 346 349 350 350 351 351 350 350 351 352 352 352 353 353 353 352 350 348 345 342 337 332 326 320 311 300 292 286 283 281 278 276 274 273 272 270 266 262 260 258 259 261 262 262 260 258 255 256 258 257 256 255 254 253 253 252 252 252 253 253 252 250 250 253
339 336 334 332 330 327 324 321 318 316 315 314 315 315 314 314 315 317 318 321 326 331 336 339 341 343 343 343 343 344 345 346 346 347 348 349 348 347 347 346 344 342 338 334 329 322 312 301 291 286 283 280 277 275 273 271 270 268 265 261 259 258 259 260 260 260 259 257 255 256 257 256 255 254 254 253 252 252 252 253 253 252 250 250 252
337 336 334 332 330 328 325 322 320 318 316 315 314 313 312 312 312 312 313 314 317 320 323 326 330 335 337 338 338 339 340 341 342 342 343 344 344 344 344 344 344 343 341 338 335 330 323 313 300 290 285 282 279 277 274 272 271 269 267 264 261 259 258 259 260 259 259 258 256 256 256 256 255 255 255 254 253 252 251 251 252 251 249 248 249
334 333 332 331 330 329 327 325 323 321 320 318 317 315 314 313 312 311 311 311 311 312 315 317 320 324 328 331 332 333 334 336 337 338 339 339 339 339 340 341 341 342 341 340 338 335 331 322 311 298 289 285 282 280 277 274 272 270 269 267 264 261 259 258 258 259 259 258 257 256 256 255 255 254 254 254 254 253 252 251 251 251 250 248 248
331 330 329 328 328 327 327 326 325 325 324 322 320 318 316 314 312 312 311 310 309 309 310 311 314 317 320 323 326 327 329 331 332 333 334 335 335 335 335 336 337 339 340 339 338 337 335 331 321 310 297 289 285 283 281 277 274 272 270 269 266 264 261 259 258 258 258 258 258 257 256 256 255 254 253 253 253 253 252 252 252 252 252 251 250
329 327 326 324 324 324 324 325 325 325 325 323 322 320 318 316 314 313 313 312 311 310 309 310 310 312 314 316 320 322 324 326 327 328 330 331 331 331 331 332 333 335 337 338 338 337 337 335 330 320 309 298 291 286 283 280 278 276 273 270 268 265 263 261 259 257 257 257 257 257 256 256 255 254 253 252 252 252 251 251 252 252 252 252 251
327 326 324 323 322 321 321 322 323 323 322 322 322 321 320 319 317 315 314 313 312 311 311 311 311 311 311 311 313 317 320 321 323 324 325 326 327 328 328 327 328 330 333 335 336 336 336 336 335 329 319 308 300 293 288 284 281 278 275 272 269 266 264 262 260 258 257 256 257 257 257 257 256 255 253 252 251 251 250 250 250 251 252 252 251
325 325 324 323 322 321 320 320 319 319 318 319 320 320 320 319 318 317 315 313 312 311 311 312 312 311 310 309 310 311 314 316 318 319 320 322 323 324 324 324 324 326 330 332 333 334 335 336 338 335 329 319 308 301 295 290 286 282 278 275 271 268 266 264 262 260 258 256 256 256 256 256 257 256 255 253 252 251 250 250 250 251 251 251 251
322 322 322 322 322 321 320 319 318 317 317 316 317 318 318 319 318 318 317 315 314 312 312 312 312 311 310 309 309 309 310 311 312 314 316 317 318 319 320 320 321 322 325 328 330 332 333 335 338 339 335 328 319 311 304 298 292 287 284 280 275 271 268 266 264 262 260 257 255 255 255 255 256 256 255 254 252 251 250 249 249 249 249 250 251
320 320 320 319 319 319 319 318 318 317 317 316 316 316 316 316 317 317 316 316 315 314 314 313 312 310 309 309 309 308 309 309 309 309 311 312 313 314 315 316 317 318 320 324 328 330 331 333 337 339 338 335 330 323 316 307 299 293 288 285 281 276 271 267 264 263 261 259 256 255 255 254 254 255 255 254 252 251 250 249 249 248 247 248 249
319 318 318 317 317 317 317 317 317 317 317 317 317 316 316 315 315 314 314 314 313 314 314 314 313 312 310 309 309 308 308 308 307 307 307 308 309 309 310 312 312 313 315 319 324 327 328 329 332 335 337 337 336 333 329 321 311 300 292 287 284 280 275 269 264 261 261 260 257 255 254 253 252 253 253 253 252 251 250 250 250 249 248 247 248
316 316 316 316 316 316 316 315 315 316 317 318 318 318 317 317 316 315 314 312 311 311 311 311 311 311 310 310 309 309 308 308 307 306 306 306 305 304 306 308 308 308 309 313 318 322 324 326 327 328 331 334 335 334 333 330 324 312 299 289 284 281 277 271 265 261 259 259 258 255 253 252 252 251 251 252 252 252 251 250 250 250 250 249 249
313 313 315 315 315 316 316 316 315 316 317 319 319 319 319 319 319 319 317 316 314 311 310 309 309 309 309 310 311 311 310 309 308 307 307 305 302 301 303 305 304 303 304 307 312 316 319 322 323 322 325 330 331 331 330 330 329 322 309 294 284 279 276 273 268 263 259 256 256 255 253 252 251 250 250 250 251 252 251 251 251 251 251 251 250
312 313 314 315 315 316 316 316 316 317 319 320 320 321 321 321 321 321 320 319 318 316 313 312 311 311 311 312 313 314 313 312 311 310 309 306 302 300 301 302 300 299 299 302 306 310 313 317 318 318 321 325 327 327 327 326 327 325 316 299 284 278 275 273 270 265 259 256 254 253 253 252 250 249 249 248 248 250 251 252 252 252 252 251 251
313 313 314 315 315 314 314 314 315 315 317 318 319 321 321 321 321 321 320 320 319 318 316 313 312 312 312 312 313 313 313 313 313 312 311 309 304 300 299 299 297 296 297 298 301 304 307 311 313 313 316 320 322 323 324 324 324 324 319 304 286 276 273 271 269 266 260 257 255 253 253 253 251 249 249 248 248 248 249 251 253 253 253 254 254
313 314 314 314 313 312 311 312 313 314 315 317 318 319 319 319 320 320 319 319 319 318 317 314 313 313 313 313 314 314 314 314 315 314 312 310 307 302 298 296 294 294 294 295 296 299 303 307 309 309 312 315 318 320 321 322 323 324 320 307 288 275 271 269 268 266 261 257 255 254 253 253 252 250 249 249 248 247 248 250 252 253 255 256 257
312 313 313 311 310 310 311 312 313 314 315 316 317 318 318 318 318 318 318 318 318 318 317 315 315 314 314 314 315 315 315 316 317 316 313 310 307 302 296 292 292 293 293 293 293 295 299 303 305 306 309 312 315 318 320 321 323 325 322 308 289 276 271 268 267 266 263 259 256 255 254 253 253 252 250 249 248 247 247 249 251 252 254 256 258
311 311 311 310 309 310 312 312 313 314 315 316 316 317 317 317 317 317 317 318 318 318 317 316 315 315 314 314 314 315 315 316 317 316 313 309 307 300 293 289 291 292 292 292 292 294 297 300 302 304 306 308 311 315 319 321 325 327 323 308 289 278 272 269 267 266 264 261 257 256 256 255 254 253 252 250 249 248 247 249 251 253 254 255 257
310 311 311 310 310 310 311 311 311 313 314 315 315 315 315 315 314 315 316 319 320 319 318 317 315 314 314 314 314 314 314 314 314 313 311 309 307 301 292 288 289 290 291 292 293 294 296 299 301 303 304 307 310 314 318 322 326 329 325 310 290 281 275 271 269 267 265 264 260 257 256 256 256 255 253 252 250 249 248 249 251 253 255 256 258
311 311 311 309 308 307 308 309 310 311 312 313 313 313 312 312 312 312 313 316 319 320 321 320 319 317 317 316 316 315 314 313 312 312 312 309 305 301 293 287 286 288 289 292 294 296 298 299 301 304 306 308 311 314 318 324 329 331 327 313 294 286 280 274 270 267 265 265 262 259 257 257 257 256 255 253 251 250 250 251 252 255 257 258 260
313 314 315 313 310 308 307 307 307 308 309 309 310 311 311 310 310 309 310 312 316 319 320 321 320 320 320 319 319 317 316 313 311 312 311 307 303 300 291 284 284 285 286 290 293 296 299 301 303 306 308 309 311 315 320 326 331 332 328 316 301 293 286 278 273 268 265 265 263 261 260 259 258 257 255 253 252 251 251 252 253 256 259 261 263
313 315 317 315 311 308 306 304 304 305 305 306 307 308 308 308 308 307 308 311 313 315 317 317 318 319 319 319 319 317 316 314 312 312 310 306 302 297 289 281 281 282 282 286 291 295 299 301 304 308 309 310 312 317 323 329 332 332 328 319 308 301 292 283 277 270 265 264 263 260 259 259 259 258 255 254 253 252 253 254 255 258 261 263 264
310 312 312 310 306 303 302 301 301 302 303 304 305 306 307 307 307 308 309 311 312 312 313 314 316 316 316 316 316 315 313 313 313 312 310 306 301 295 287 281 280 280 280 284 289 294 298 302 305 309 310 310 312 318 325 330 332 332 328 318 308 304 297 287 280 273 266 264 263 260 258 258 258 259 257 255 254 254 256 257 258 260 262 264 264
305 306 306 305 302 300 300 300 301 301 303 304 305 306 306 306 307 308 309 310 311 311 311 312 314 314 314 314 314 313 313 313 314 313 310 307 302 295 287 280 279 279 279 282 288 293 297 301 305 309 309 309 311 316 324 330 331 331 329 319 305 301 298 290 282 275 268 264 263 262 258 256 256 258 259 258 257 257 259 259 260 261 263 264 263
300 301 302 302 301 299 299 299 300 301 301 302 303 304 304 305 306 307 308 309 310 311 311 311 312 313 313 312 313 313 313 315 316 314 311 308 303 297 287 280 278 278 277 279 285 291 295 299 304 308 308 309 311 315 323 330 330 330 330 324 308 297 297 294 286 278 271 265 264 263 262 259 256 256 258 259 259 259 260 261 261 263 264 265 262
296 297 297 297 297 297 296 296 296 297 297 298 299 300 301 303 304 305 306 307 308 308 306 306 308 311 312 312 312 313 314 316 316 314 311 307 303 297 288 282 281 279 276 277 283 289 293 297 303 306 307 309 311 315 321 328 330 329 329 327 315 301 299 298 292 283 275 269 265 265 264 262 258 256 256 257 258 258 259 261 262 263 265 265 261
293 293 293 293 292 293 292 292 293 293 293 294 295 297 299 300 302 303 303 304 305 304 301 300 304 308 310 311 311 311 312 314 315 313 310 306 301 295 288 284 284 281 277 278 282 288 292 298 302 306 307 308 310 313 318 324 328 328 328 327 319 308 303 302 297 289 280 274 269 266 265 263 260 258 256 256 257 257 258 260 262 264 266 266 261
291 291 291 290 290 290 290 290 291 292 292 292 293 295 296 297 299 301 301 302 303 303 301 301 303 306 308 309 309 309 309 311 313 312 309 304 299 293 287 284 284 281 277 278 282 287 292 298 302 305 306 307 308 310 315 321 326 328 328 325 319 310 304 302 299 292 284 278 273 270 267 265 262 260 258 256 256 258 259 260 261 264 266 266 261
289 289 289 289 289 289 289 289 290 290 290 291 293 294 294 296 298 299 299 300 301 301 301 302 303 304 305 305 305 306 306 308 311 310 306 301 297 292 287 284 283 280 277 277 281 286 292 297 301 303 304 305 305 308 313 318 322 326 326 323 316 310 304 300 298 295 288 281 276 274 272 268 263 260 259 257 256 256 258 259 261 263 265 266 262
288 288 288 288 288 288 288 288 289 289 289 289 291 293 293 295 297 297 297 299 300 300 300 301 301 303 303 303 303 303 303 304 307 306 302 299 296 290 285 283 281 280 277 277 280 285 290 295 299 301 302 303 303 306 311 315 319 323 325 322 316 311 304 299 296 295 292 287 281 278 277 272 264 259 258 256 255 254 255 257 259 261 263 265 264
288 287 287 287 288 288 289 289 289 289 288 288 290 291 292 294 295 295 295 297 299 299 298 299 301 302 302 302 302 302 300 300 302 302 298 296 294 288 283 281 280 279 278 277 279 285 291 295 299 301 301 301 300 302 307 311 315 319 323 322 318 311 305 300 297 294 293 291 286 282 280 276 269 261 256 255 255 255 255 256 258 259 261 264 264
288 287 288 289 290 290 290 290 289 289 289 290 290 291 291 292 294 294 294 296 298 297 296 298 301 301 299 298 299 299 298 297 298 297 295 294 292 287 281 279 279 278 277 276 278 284 290 294 298 300 300 299 298 300 305 309 312 316 320 322 319 312 305 302 299 295 292 290 288 284 281 278 275 270 264 259 256 253 252 254 256 258 261 263 263
288 289 290 291 292 291 291 290 289 289 289 290 291 292 292 292 293 293 293 295 296 294 293 297 300 299 297 296 296 297 297 295 294 294 292 291 290 286 279 276 277 277 276 276 278 282 287 291 294 296 296 295 294 296 301 305 308 313 317 320 320 314 305 301 299 296 292 289 288 287 283 278 274 272 272 268 261 253 249 250 253 256 260 264 265
291 292 293 293 292 291 291 291 290 290 290 290 292 293 293 292 292 292 292 294 294 293 293 295 296 294 292 292 293 296 297 295 295 294 291 287 286 283 278 274 274 274 273 275 278 282 287 292 295 295 294 292 293 296 299 301 304 309 314 318 319 314 306 300 298 295 291 289 287 287 285 280 275 271 272 272 267 256 248 248 251 254 258 262 265
294 294 293 293 292 292 292 292 291 291 292 292 292 293 293 293 293 292 292 292 293 294 294 293 291 290 291 291 293 295 296 295 295 295 290 284 282 281 276 272 271 271 272 275 279 283 287 291 293 293 293 292 293 297 299 301 303 306 311 316 318 314 305 298 296 294 291 288 288 286 284 280 277 273 271 272 270 260 249 246 249 253 255 259 262
293 293 292 293 293 293 293 292 291 291 292 292 292 293 293 293 293 292 291 291 291 291 291 290 290 291 292 291 291 292 293 293 293 293 289 283 279 275 271 268 267 268 270 274 276 279 284 289 291 291 291 290 291 295 299 301 302 306 310 314 316 314 306 297 294 293 290 287 287 286 284 281 279 274 270 270 270 262 250 244 247 251 254 257 260
291 291 292 292 293 293 292 292 291 292 292 292 292 292 292 292 292 291 291 290 290 290 288 288 289 290 291 290 290 291 294 294 293 291 287 279 272 269 270 269 269 269 269 270 272 277 283 288 290 289 288 287 288 293 298 300 301 306 311 314 315 313 306 297 293 292 291 288 287 285 283 281 279 275 270 269 269 263 250 244 245 249 252 255 258
289 290 291 292 292 291 291 291 291 292 292 292 292 292 292 292 291 291 291 290 290 289 287 287 287 288 288 289 290 292 295 295 292 288 283 273 265 265 270 273 275 276 272 269 271 278 284 286 286 285 284 284 287 294 299 300 302 306 311 313 314 312 305 297 294 293 293 292 290 288 285 281 278 274 269 267 267 262 251 243 243 247 250 253 256
289 290 291 291 291 290 290 291 291 291 291 291 291 291 292 292 292 292 292 291 289 287 285 285 284 284 285 287 288 290 294 294 291 287 281 270 262 262 267 273 278 278 275 272 274 279 281 281 281 282 281 281 286 294 299 301 305 310 313 313 313 310 304 297 294 293 292 292 292 290 287 283 279 275 269 264 263 260 250 242 241 244 248 251 253
289 289 289 289 290 290 290 290 290 290 289 290 290 290 290 291 292 293 293 291 289 286 283 282 281 281 282 283 285 288 291 292 291 287 280 271 263 262 265 270 272 271 271 273 277 280 281 281 283 284 281 279 284 292 297 300 306 311 314 314 312 308 302 297 293 292 291 292 292 291 287 280 278 278 272 264 261 257 248 239 238 241 245 249 251
287 287 287 288 288 289 290 290 290 290 289 289 289 289 289 291 292 291 290 290 288 285 282 279 278 278 279 281 283 285 288 289 288 285 280 274 268 265 264 265 267 268 271 274 277 279 281 284 287 286 280 276 282 291 296 301 307 312 314 314 311 307 301 298 295 293 292 292 294 293 286 276 274 279 280 271 263 257 247 237 235 238 242 246 249
285 286 286 287 287 288 289 290 290 290 289 289 289 288 288 288 288 287 287 287 287 285 283 280 278 277 278 280 282 284 286 287 286 283 279 275 271 267 264 263 265 268 271 273 275 279 282 284 286 285 276 272 280 290 295 301 308 313 315 314 312 307 302 299 296 293 292 293 293 292 286 275 270 276 283 278 267 256 245 236 234 237 240 243 247
285 285 286 286 286 286 286 287 287 288 288 287 286 284 284 284 285 285 284 284 284 284 283 281 278 278 279 280 281 283 284 284 284 283 279 276 275 273 269 265 265 268 270 270 272 278 282 283 282 278 269 268 278 288 294 301 309 314 315 314 312 308 304 301 298 294 291 290 290 290 286 278 270 271 278 279 270 258 247 238 236 238 241 243 244
286 286 286 286 286 286 285 285 285 285 284 283 282 282 282 282 283 283 283 283 284 284 284 282 281 280 280 280 281 282 283 283 284 284 281 277 277 278 276 269 266 270 273 272 271 274 280 283 279 270 263 265 275 283 291 300 309 312 313 312 312 311 308 304 300 295 290 286 286 286 284 279 272 268 270 275 273 264 254 247 242 242 244 245 245
287 287 287 287 286 286 285 284 283 283 283 283 283 283 284 284 284 284 284 285 285 284 282 282 280 279 279 279 280 282 283 283 284 285 284 280 277 278 278 274 270 270 273 274 273 275 280 283 279 267 260 264 273 280 288 298 305 309 310 311 313 314 312 306 300 296 290 285 282 281 280 278 273 267 265 267 269 267 262 256 251 249 249 249 249
286 286 286 286 286 285 285 284 283 283 283 284 284 284 284 285 286 285 285 285 284 283 281 280 279 278 278 279 280 280 280 280 280 282 283 282 280 278 279 280 279 276 274 274 275 276 279 280 276 265 258 263 271 278 287 295 301 305 310 312 312 314 313 308 302 297 293 286 280 275 272 271 269 267 264 262 261 262 263 261 257 254 253 253 253
Height
5786 5785 5784 5783 5782 5781 5779 5778 5776 5774 5773 5771 5770 5768 5767 5765 5764 5763 5761 5760 5759 5757 5756 5755 5754 5752 5751 5750 5748 5747 5745 5743 5742 5740 5739 5738 5736 5735 5734 5733 5732 5731 5730 5729 5728 5728 5727 5726 5726 5725 5724 5724 5724 5725 5725 5726 5727 5727 5728 5728 5728 5728 5728 5729 5729 5728 5727 5728 5729 5729 5729 5730 5730 5731 5733 5734 5736 5737 5737 5738 5739 5740 5742 5745 5746
5786 5785 5784 5783 5781 5780 5779 5777 5776 5774 5773 5771 5770 5768 5767 5765 5764 5763 5761 5760 5759 5757 5756 5755 5753 5752 5751 5750 5748 5746 5745 5743 5741 5740 5738 5736 5735 5733 5732 5731 5729 5728 5727 5726 5725 5725 5724 5723 5723 5722 5721 5720 5720 5721 5721 5722 5722 5723 5724 5724 5724 5725 5725 5726 5726 5726 5724 5724 5725 5726 5726 5726 5727 5728 5729 5730 5732 5733 5733 5734 5736 5737 5739 5741 5743
5786 5784 5783 5782 5781 5779 5778 5777 5775 5774 5773 5771 5770 5768 5767 5765 5764 5763 5761 5760 5758 5757 5756 5754 5753 5752 5751 5749 5748 5746 5744 5743 5741 5739 5737 5736 5734 5732 5730 5729 5727 5726 5724 5723 5722 5721 5721 5720 5719 5719 5718 5717 5716 5716 5717 5718 5719 5719 5720 5720 5721 5721 5722 5722 5723 5723 5722 5721 5722 5723 5723 5723 5724 5725 5725 5727 5728 5728 5729 5730 5732 5733 5734 5736 5738
5785 5784 5782 5781 5780 5779 5777 5776 5775 5773 5772 5771 5770 5768 5766 5765 5764 5762 5761 5760 5758 5757 5755 5754 5752 5751 5750 5749 5747 5745 5744 5742 5740 5738 5737 5735 5733 5731 5729 5727 5725 5723 5722 5720 5719 5718 5717 5716 5716 5715 5715 5714 5713 5712 5713 5713 5714 5715 5715 5716 5717 5717 5718 5719 5719 5720 5720 5719 5718 5719 5720 5720 5721 5722 5723 5724 5725 5726 5726 5727 5727 5728 5730 5732 5734
5784 5783 5781 5780 5779 5777 5776 5775 5774 5773 5771 5770 5769 5767 5766 5764 5763 5762 5760 5759 5758 5756 5755 5753 5752 5750 5749 5748 5746 5745 5743 5741 5739 5738 5736 5734 5732 5730 5728 5725 5723 5721 5719 5718 5716 5715 5714 5713 5712 5712 5711 5711 5710 5709 5709 5709 5709 5710 5711 5712 5713 5713 5714 5714 5715 5716 5716 5716 5716 5716 5716 5717 5718 5719 5719 5721 5722 5723 5724 5723 5723 5725 5727 5727 5728
5783 5782 5780 5779 5777 5776 5775 5774 5773 5772 5770 5769 5768 5766 5765 5764 5763 5761 5760 5759 5757 5756 5754 5752 5751 5749 5748 5746 5745 5744 5742 5740 5739 5737 5735 5733 5731 5729 5727 5724 5722 5720 5717 5715 5714 5712 5711 5710 5708 5708 5707 5707 5706 5706 5705 5705 5705 5705 5706 5707 5708 5709 5710 5710 5711 5712 5712 5713 5713 5712 5713 5713 5714 5715 5716 5717 5718 5719 5720 5721 5721 5723 5724 5724 5724
5782 5781 5779 5778 5776 5775 5774 5772 5771 5770 5769 5768 5767 5765 5764 5763 5762 5760 5759 5757 5756 5755 5753 5751 5750 5748 5747 5745 5744 5742 5740 5739 5737 5735 5733 5731 5729 5727 5725 5723 5721 5718 5716 5713 5711 5709 5708 5706 5705 5704 5703 5703 5702 5702 5702 5701 5701 5701 5702 5703 5704 5704 5705 5706 5706 5707 5708 5709 5709 5709 5709 5710 5710 5711 5712 5713 5714 5715 5716 5717 5718 5719 5720 5720 5721
5782 5780 5778 5777 5775 5774 5772 5771 5770 5768 5767 5766 5765 5764 5762 5761 5760 5759 5757 5756 5754 5753 5752 5750 5749 5747 5746 5744 5742 5740 5738 5737 5735 5733 5732 5730 5728 5726 5724 5721 5719 5717 5714 5712 5709 5707 5705 5703 5702 5701 5700 5699 5698 5698 5697 5697 5697 5697 5697 5698 5699 5699 5700 5701 5702 5702 5703 5704 5705 5705 5706 5706 5706 5707 5708 5709 5710 5711 5712 5713 5714 5714 5715 5717 5718
5780 5779 5777 5775 5774 5772 5771 5769 5768 5767 5765 5764 5763 5761 5760 5759 5758 5756 5755 5754 5752 5751 5749 5748 5747 5746 5744 5743 5740 5738 5737 5735 5733 5731 5730 5728 5726 5724 5722 5720 5717 5715 5712 5710 5707 5705 5702 5700 5698 5697 5696 5695 5694 5694 5693 5693 5693 5693 5693 5693 5694 5694 5695 5696 5697 5697 5699 5700 5700 5701 5702 5702 5702 5703 5703 5704 5705 5706 5708 5709 5709 5709 5711 5713 5714
5779 5777 5775 5774 5772 5771 5769 5768 5766 5765 5763 5762 5761 5759 5758 5757 5755 5754 5753 5752 5750 5749 5747 5746 5745 5743 5742 5740 5738 5736 5734 5733 5731 5729 5727 5726 5724 5722 5720 5718 5715 5713 5711 5708 5705 5702 5700 5697 5695 5694 5693 5692 5691 5690 5689 5688 5688 5688 5688 5688 5689 5689 5690 5690 5691 5692 5693 5695 5695 5696 5697 5697 5697 5699 5699 5700 5700 5702 5703 5704 5704 5705 5706 5708 5710
5777 5776 5774 5772 5771 5769 5768 5766 5764 5763 5761 5760 5759 5757 5756 5754 5753 5752 5750 5749 5748 5746 5745 5744 5742 5741 5739 5737 5736 5734 5732 5730 5728 5726 5725 5723 5721 5719 5717 5715 5713 5711 5708 5706 5703 5700 5698 5695 5693 5691 5689 5688 5687 5686 5685 5684 5684 5683 5683 5683 5683 5684 5684 5685 5685 5686 5688 5689 5690 5691 5692 5692 5693 5694 5695 5696 5696 5697 5698 5699 5700 5701 5702 5703 5705
5775 5774 5772 5771 5769 5767 5766 5764 5763 5761 5760 5758 5757 5755 5754 5752 5751 5749 5748 5746 5745 5743 5742 5741 5739 5738 5736 5735 5733 5732 5730 5727 5725 5724 5722 5720 5718 5717 5715 5713 5711 5708 5706 5704 5701 5698 5695 5692 5690 5688 5686 5685 5684 5683 5681 5680 5680 5679 5678 5678 5678 5678 5679 5679 5680 5681 5682 5684 5685 5685 5686 5687 5688 5689 5690 5691 5692 5693 5694 5695 5695 5696 5697 5698 5700
5773 5772 5770 5768 5767 5765 5764 5762 5761 5759 5758 5756 5755 5753 5751 5750 5748 5747 5745 5744 5742 5740 5739 5738 5736 5735 5733 5731 5730 5729 5727 5725 5723 5721 5719 5717 5715 5714 5712 5710 5708 5705 5703 5701 5698 5696 5693 5690 5688 5685 5684 5682 5680 5679 5678 5677 5676 5675 5674 5673 5672 5673 5673 5674 5674 5675 5676 5678 5679 5679 5680 5682 5683 5683 5684 5686 5687 5688 5689 5690 5691 5692 5693 5693 5694
5771 5770 5768 5766 5764 5763 5761 5760 5758 5757 5755 5754 5752 5750 5749 5747 5745 5744 5742 5740 5739 5737 5736 5735 5733 5731 5730 5728 5726 5725 5724 5722 5720 5718 5716 5714 5712 5711 5709 5707 5704 5702 5700 5698 5696 5693 5691 5688 5685 5683 5681 5679 5677 5676 5675 5673 5672 5671 5670 5669 5668 5667 5668 5668 5669 5670 5670 5671 5673 5674 5675 5676 5677 5677 5678 5680 5681 5683 5684 5685 5686 5687 5688 5689 5690
5769 5767 5766 5764 5762 5760 5759 5757 5755 5754 5753 5751 5749 5748 5746 5744 5742 5741 5739 5737 5735 5734 5733 5731 5730 5728 5726 5725 5723 5721 5720 5718 5716 5714 5713 5711 5709 5707 5705 5703 5701 5699 5697 5695 5693 5691 5688 5686 5683 5680 5678 5677 5675 5673 5671 5670 5669 5667 5666 5665 5663 5663 5662 5662 5663 5664 5665 5666 5667 5668 5669 5670 5671 5672 5673 5674 5675 5677 5678 5679 5680 5681 5683 5684 5685
5766 5764 5763 5761 5760 5758 5756 5754 5753 5751 5750 5748 5747 5745 5743 5742 5740 5738 5736 5734 5732 5730 5729 5728 5726 5724 5723 5721 5720 5718 5716 5715 5713 5711 5709 5707 5705 5703 5701 5699 5697 5696 5694 5692 5690 5688 5686 5683 5680 5678 5676 5674 5673 5671 5668 5667 5665 5663 5662 5661 5659 5658 5657 5657 5657 5658 5659 5660 5661 5662 5662 5663 5664 5666 5667 5668 5669 5671 5673 5673 5674 5676 5678 5679 5680
5762 5761 5759 5758 5756 5755 5753 5752 5750 5749 5747 5745 5743 5742 5740 5738 5737 5735 5733 5731 5729 5727 5725 5724 5723 5721 5719 5717 5716 5714 5713 5711 5709 5706 5704 5703 5701 5699 5697 5695 5694 5692 5690 5689 5687 5685 5683 5681 5678 5675 5674 5672 5670 5668 5666 5663 5661 5659 5657 5656 5655 5653 5652 5651 5651 5652 5654 5655 5655 5655 5656 5657 5658 5660 5661 5662 5664 5665 5667 5668 5669 5670 5672 5674 5674
5759 5757 5756 5754 5753 5751 5750 5748 5746 5745 5743 5742 5740 5738 5736 5734 5732 5731 5729 5727 5726 5724 5722 5720 5719 5717 5716 5713 5712 5710 5708 5706 5705 5702 5700 5698 5697 5695 5693 5692 5690 5688 5687 5685 5683 5681 5680 5678 5676 5672 5670 5668 5666 5664 5662 5660 5657 5655 5653 5651 5649 5648 5647 5646 5646 5647 5648 5649 5649 5649 5650 5651 5652 5653 5655 5657 5658 5660 5661 5662 5663 5665 5667 5668 5669
5756 5754 5752 5750 5749 5747 5746 5745 5743 5741 5739 5737 5736 5734 5732 5730 5729 5727 5724 5723 5721 5719 5717 5715 5714 5713 5711 5709 5707 5705 5703 5702 5700 5698 5696 5694 5692 5691 5689 5688 5686 5684 5683 5681 5680 5678 5676 5675 5673 5669 5667 5665 5663 5660 5658 5655 5652 5650 5647 5645 5643 5642 5641 5641 5641 5641 5642 5642 5643 5643 5644 5645 5646 5648 5649 5651 5653 5654 5656 5657 5658 5659 5661 5662 5663
5753 5751 5749 5747 5746 5744 5743 5742 5740 5738 5736 5734 5732 5731 5729 5727 5725 5723 5721 5719 5717 5715 5713 5711 5710 5708 5707 5705 5704 5702 5700 5698 5696 5694 5691 5689 5688 5686 5685 5683 5682 5680 5678 5677 5675 5674 5672 5671 5669 5666 5664 5661 5659 5657 5654 5651 5647 5644 5640 5638 5637 5636 5635 5635 5635 5635 5636 5636 5637 5638 5638 5639 5640 5642 5643 5645 5647 5649 5650 5650 5651 5653 5654 5656 5657
5750 5748 5746 5744 5743 5741 5740 5738 5737 5735 5733 5731 5729 5727 5725 5723 5722 5720 5718 5716 5714 5712 5710 5707 5706 5704 5702 5701 5699 5698 5696 5694 5692 5690 5687 5684 5683 5682 5680 5678 5677 5676 5674 5672 5671 5669 5667 5666 5665 5662 5660 5658 5655 5653 5650 5647 5643 5638 5634 5631 5630 5629 5629 5629 5629 5630 5630 5631 5631 5632 5633 5633 5634 5636 5638 5640 5641 5643 5644 5645 5646 5647 5649 5650 5651
5746 5745 5743 5741 5739 5738 5736 5734 5732 5731 5729 5727 5725 5723 5722 5720 5718 5716 5714 5712 5710 5708 5706 5704 5702 5700 5698 5696 5694 5692 5691 5689 5687 5685 5683 5680 5678 5677 5675 5673 5672 5671 5670 5668 5666 5665 5663 5661 5660 5658 5656 5653 5651 5648 5645 5642 5638 5633 5628 5624 5623 5623 5623 5624 5624 5624 5625 5625 5626 5626 5627 5628 5629 5631 5632 5634 5635 5637 5638 5639 5640 5642 5644 5644 5645
5742 5741 5739 5738 5736 5734 5732 5730 5728 5726 5725 5723 5721 5720 5718 5716 5714 5712 5711 5709 5707 5704 5702 5700 5698 5696 5694 5692 5690 5688 5686 5684 5682 5680 5678 5676 5674 5673 5671 5669 5668 5667 5665 5664 5662 5661 5659 5657 5656 5654 5652 5650 5647 5645 5641 5638 5633 5628 5623 5619 5617 5617 5618 5618 5618 5619 5619 5620 5621 5621 5622 5623 5625 5626 5627 5628 5629 5631 5632 5634 5635 5636 5638 5638 5639
5738 5736 5735 5733 5731 5729 5727 5726 5724 5722 5720 5719 5718 5716 5714 5712 5710 5708 5706 5705 5703 5701 5698 5696 5694 5692 5690 5688 5686 5684 5682 5680 5678 5675 5674 5672 5670 5668 5666 5665 5664 5662 5661 5659 5658 5656 5655 5653 5651 5650 5648 5646 5643 5641 5638 5634 5629 5624 5619 5616 5614 5613 5613 5613 5613 5614 5615 5615 5616 5617 5617 5618 5620 5621 5622 5623 5624 5625 5626 5628 5630 5631 5632 5633 5634
5733 5732 5730 5729 5727 5725 5724 5722 5720 5718 5716 5715 5714 5712 5710 5709 5707 5705 5703 5701 5699 5697 5694 5692 5690 5688 5686 5684 5682 5680 5678 5676 5673 5671 5669 5668 5666 5663 5661 5660 5659 5658 5657 5655 5654 5652 5651 5649 5647 5646 5644 5642 5639 5637 5634 5630 5625 5620 5615 5612 5611 5610 5609 5609 5609 5609 5610 5611 5611 5612 5613 5614 5615 5616 5617 5618 5619 5620 5621 5623 5624 5625 5626 5627 5629
5728 5727 5725 5724 5722 5721 5720 5718 5716 5715 5713 5711 5709 5708 5706 5704 5703 5701 5699 5697 5695 5693 5690 5688 5686 5683 5681 5679 5677 5675 5673 5671 5669 5666 5665 5663 5661 5659 5657 5655 5654 5654 5653 5651 5649 5648 5647 5645 5643 5641 5639 5637 5635 5633 5629 5625 5621 5616 5612 5609 5608 5607 5606 5605 5605 5605 5606 5606 5607 5608 5609 5609 5610 5611 5612 5613 5614 5616 5617 5618 5619 5620 5621 5622 5623
5725 5723 5721 5720 5719 5717 5716 5714 5712 5711 5709 5708 5706 5704 5702 5700 5699 5697 5695 5693 5690 5688 5686 5683 5681 5679 5676 5674 5672 5670 5668 5666 5664 5662 5660 5658 5656 5654 5652 5650 5650 5649 5648 5647 5645 5644 5643 5641 5639 5638 5636 5633 5631 5628 5625 5620 5617 5613 5609 5607 5605 5604 5603 5602 5602 5601 5602 5603 5603 5604 5604 5605 5605 5606 5608 5609 5610 5611 5612 5613 5614 5615 5616 5617 5617
5721 5719 5718 5716 5715 5714 5712 5710 5708 5706 5705 5704 5702 5700 5698 5696 5695 5693 5691 5688 5686 5684 5681 5679 5676 5674 5672 5670 5668 5666 5663 5661 5659 5657 5655 5653 5651 5649 5647 5646 5645 5645 5644 5642 5641 5640 5639 5637 5636 5634 5632 5630 5627 5624 5620 5617 5613 5610 5607 5604 5603 5601 5599 5599 5598 5598 5598 5599 5599 5600 5601 5601 5601 5602 5604 5605 5606 5607 5607 5608 5609 5610 5611 5612 5612
5717 5716 5713 5712 5711 5709 5708 5706 5704 5702 5701 5699 5697 5696 5694 5692 5690 5688 5686 5684 5681 5679 5677 5674 5672 5669 5666 5664 5662 5660 5658 5655 5654 5652 5650 5647 5646 5644 5642 5641 5640 5640 5640 5639 5637 5636 5635 5633 5632 5630 5628 5627 5625 5622 5618 5615 5612 5609 5605 5603 5601 5599 5597 5596 5595 5595 5595 5595 5595 5596 5597 5597 5598 5599 5599 5600 5601 5603 5603 5603 5604 5605 5606 5606 5607
5713 5711 5709 5707 5705 5704 5703 5701 5699 5697 5695 5694 5692 5691 5688 5686 5684 5682 5680 5678 5676 5674 5671 5669 5667 5665 5662 5659 5657 5655 5652 5650 5648 5646 5644 5642 5640 5639 5638 5637 5636 5636 5636 5635 5634 5632 5631 5629 5628 5626 5624 5623 5621 5618 5615 5612 5609 5606 5603 5600 5598 5597 5595 5593 5592 5592 5591 5591 5592 5592 5593 5594 5595 5595 5596 5596 5597 5598 5599 5599 5599 5600 5601 5601 5602
5707 5706 5704 5702 5700 5698 5697 5696 5694 5692 5690 5688 5686 5684 5682 5680 5679 5677 5675 5673 5671 5669 5667 5663 5661 5659 5657 5654 5652 5649 5647 5645 5643 5641 5639 5637 5635 5634 5633 5632 5632 5632 5632 5631 5630 5628 5627 5626 5624 5622 5620 5618 5616 5614 5611 5608 5605 5602 5599 5596 5594 5593 5592 5591 5589 5588 5588 5588 5588 5588 5589 5589 5590 5591 5592 5593 5593 5594 5594 5594 5595 5596 5596 5597 5598
5701 5700 5698 5696 5694 5692 5691 5689 5688 5686 5684 5682 5681 5678 5676 5674 5673 5671 5670 5667 5666 5665 5663 5660 5656 5654 5651 5649 5646 5644 5642 5640 5638 5636 5634 5632 5630 5628 5628 5627 5627 5627 5627 5626 5625 5624 5623 5621 5620 5618 5616 5614 5612 5610 5607 5605 5602 5599 5596 5593 5591 5589 5589 5588 5587 5586 5585 5585 5584 5584 5585 5585 5586 5587 5588 5589 5589 5589 5590 5590 5591 5591 5592 5592 5593
5695 5693 5692 5690 5688 5686 5684 5683 5681 5680 5678 5676 5675 5674 5671 5668 5666 5665 5663 5661 5660 5659 5657 5655 5652 5649 5646 5644 5641 5639 5637 5635 5634 5632 5630 5628 5626 5624 5623 5622 5622 5622 5622 5621 5621 5619 5618 5617 5616 5614 5612 5610 5608 5606 5604 5601 5599 5596 5593 5591 5588 5587 5586 5585 5584 5583 5582 5582 5581 5581 5581 5581 5582 5583 5583 5584 5585 5585 5585 5586 5587 5587 5587 5588 5588
5689 5687 5685 5683 5682 5680 5678 5676 5675 5674 5672 5669 5668 5668 5666 5663 5661 5659 5656 5656 5655 5653 5651 5649 5647 5644 5642 5640 5637 5634 5632 5630 5629 5628 5626 5624 5622 5620 5619 5618 5617 5617 5617 5617 5616 5615 5614 5613 5611 5609 5607 5606 5604 5602 5600 5598 5596 5594 5591 5588 5586 5584 5583 5582 5581 5579 5579 5578 5578 5577 5577 5577 5577 5578 5579 5580 5580 5580 5581 5582 5582 5583 5583 5583 5584
5683 5681 5679 5677 5675 5674 5672 5670 5669 5668 5666 5664 5661 5660 5659 5658 5656 5653 5650 5649 5649 5647 5645 5643 5641 5639 5637 5635 5633 5630 5627 5625 5624 5623 5621 5619 5617 5616 5615 5614 5613 5612 5612 5612 5611 5611 5610 5608 5607 5605 5603 5602 5600 5598 5596 5594 5592 5591 5588 5586 5583 5581 5580 5579 5577 5576 5575 5575 5574 5574 5573 5573 5573 5574 5575 5576 5576 5576 5577 5577 5578 5578 5579 5579 5580
5675 5673 5672 5671 5669 5667 5666 5665 5663 5661 5660 5658 5656 5654 5652 5651 5650 5648 5645 5643 5642 5641 5640 5638 5636 5634 5632 5630 5628 5626 5623 5620 5619 5618 5616 5615 5613 5611 5610 5609 5608 5608 5608 5607 5607 5606 5605 5604 5602 5601 5599 5598 5596 5594 5593 5591 5589 5587 5585 5583 5580 5578 5576 5575 5574 5573 5571 5571 5570 5570 5569 5569 5569 5569 5570 5571 5572 5572 5573 5573 5573 5574 5575 5576 5576
5668 5666 5665 5664 5663 5661 5660 5659 5657 5655 5652 5650 5649 5648 5645 5643 5643 5642 5640 5638 5637 5635 5634 5633 5631 5629 5627 5624 5622 5620 5618 5616 5615 5613 5611 5610 5608 5607 5605 5604 5603 5603 5603 5603 5602 5601 5601 5599 5598 5596 5595 5594 5592 5590 5588 5587 5585 5583 5581 5579 5577 5575 5572 5571 5570 5569 5568 5567 5566 5566 5566 5566 5565 5566 5566 5566 5567 5568 5569 5569 5569 5569 5570 5571 5572
5660 5659 5658 5657 5656 5655 5654 5652 5650 5649 5646 5643 5642 5641 5639 5637 5636 5635 5633 5632 5631 5629 5628 5627 5625 5623 5621 5619 5616 5615 5613 5612 5610 5608 5606 5604 5603 5602 5601 5600 5599 5598 5598 5598 5597 5597 5596 5595 5594 5592 5591 5589 5588 5587 5585 5583 5581 5579 5577 5574 5572 5570 5568 5567 5566 5565 5564 5563 5562 5562 5562 5561 5561 5562 5562 5562 5562 5563 5564 5564 5565 5565 5566 5567 5567
5654 5652 5651 5650 5649 5647 5646 5645 5643 5642 5640 5637 5635 5634 5633 5631 5629 5628 5627 5626 5625 5623 5622 5621 5619 5618 5615 5612 5610 5609 5608 5607 5605 5602 5599 5598 5597 5596 5595 5594 5594 5593 5593 5593 5592 5591 5590 5589 5588 5587 5586 5585 5584 5582 5581 5579 5577 5575 5573 5570 5568 5566 5564 5563 5562 5561 5560 5559 5558 5558 5558 5557 5557 5557 5558 5558 5558 5558 5559 5559 5560 5561 5562 5563 5563
5647 5646 5644 5643 5641 5640 5639 5638 5635 5634 5633 5631 5628 5627 5626 5624 5623 5621 5620 5619 5618 5617 5616 5615 5613 5611 5609 5606 5604 5604 5603 5601 5599 5597 5594 5592 5592 5591 5590 5589 5589 5588 5588 5587 5587 5586 5585 5584 5583 5582 5581 5580 5579 5578 5576 5575 5573 5571 5569 5567 5564 5562 5560 5559 5557 5557 5556 5555 5554 5554 5554 5554 5553 5553 5553 5553 5553 5553 5554 5555 5556 5557 5558 5559 5559
5640 5638 5637 5636 5634 5632 5631 5630 5628 5626 5625 5623 5621 5620 5619 5618 5616 5615 5614 5613 5612 5611 5610 5608 5606 5605 5604 5601 5599 5598 5597 5596 5594 5591 5589 5588 5587 5586 5585 5585 5584 5584 5583 5582 5582 5581 5580 5579 5578 5577 5575 5574 5573 5573 5572 5571 5569 5567 5565 5562 5560 5558 5556 5555 5553 5553 5552 5552 5551 5550 5550 5550 5549 5548 5548 5548 5549 5549 5550 5551 5551 5552 5553 5554 5555
5632 5631 5629 5629 5627 5625 5623 5622 5620 5619 5617 5616 5614 5613 5612 5611 5610 5609 5607 5607 5606 5604 5603 5602 5600 5599 5598 5596 5593 5592 5590 5589 5588 5585 5583 5583 5582 5582 5581 5581 5580 5579 5578 5577 5576 5576 5575 5574 5572 5571 5570 5570 5569 5568 5568 5567 5565 5563 5560 5558 5556 5554 5552 5551 5549 5548 5548 5547 5547 5547 5547 5546 5545 5544 5544 5544 5545 5545 5545 5546 5547 5548 5549 5550 5551
5624 5623 5622 5621 5619 5617 5615 5614 5613 5611 5609 5608 5607 5606 5605 5604 5603 5603 5601 5600 5599 5598 5597 5595 5594 5592 5591 5589 5587 5586 5584 5583 5581 5580 5578 5578 5577 5577 5577 5576 5575 5574 5573 5572 5571 5570 5569 5568 5567 5566 5565 5565 5564 5564 5563 5562 5561 5559 5557 5554 5551 5549 5548 5546 5545 5544 5543 5542 5542 5542 5543 5543 5541 5540 5540 5540 5540 5541 5541 5542 5543 5544 5545 5546 5547
5616 5615 5614 5612 5611 5609 5607 5606 5605 5604 5602 5600 5600 5599 5598 5597 5596 5595 5595 5594 5592 5591 5590 5588 5587 5586 5585 5584 5582 5580 5579 5578 5576 5574 5573 5573 5573 5572 5572 5572 5571 5570 5568 5567 5566 5566 5564 5563 5562 5561 5560 5561 5560 5560 5559 5557 5556 5554 5552 5550 5547 5545 5543 5542 5542 5540 5539 5538 5538 5538 5538 5537 5537 5536 5536 5536 5536 5536 5537 5538 5539 5540 5541 5542 5544
5608 5607 5605 5604 5603 5601 5600 5598 5597 5596 5595 5593 5592 5591 5591 5590 5589 5587 5586 5586 5585 5584 5583 5582 5581 5580 5579 5578 5576 5575 5574 5573 5571 5569 5568 5567 5567 5567 5567 5567 5567 5565 5562 5561 5562 5561 5559 5558 5557 5556 5556 5556 5556 5555 5554 5553 5552 5550 5548 5545 5544 5542 5540 5539 5538 5536 5535 5534 5534 5533 5533 5533 5532 5532 5532 5531 5531 5532 5532 5534 5535 5536 5537 5538 5540
5600 5599 5597 5596 5595 5593 5592 5591 5590 5589 5587 5586 5585 5584 5583 5583 5583 5582 5580 5578 5577 5577 5576 5575 5574 5573 5572 5571 5570 5569 5568 5567 5566 5565 5563 5563 5562 5562 5561 5561 5561 5560 5557 5556 5557 5557 5555 5553 5552 5552 5551 5552 5551 5551 5550 5549 5548 5546 5544 5541 5540 5538 5536 5535 5533 5532 5531 5531 5530 5529 5529 5529 5528 5528 5528 5527 5527 5527 5528 5530 5531 5532 5533 5534 5536
5592 5591 5589 5588 5586 5585 5584 5583 5582 5581 5580 5579 5578 5577 5576 5576 5577 5576 5574 5572 5571 5569 5569 5568 5568 5567 5566 5565 5564 5563 5562 5561 5561 5561 5559 5558 5557 5556 5555 5555 5555 5554 5552 5552 5552 5552 5550 5549 5548 5547 5547 5547 5547 5546 5546 5545 5543 5541 5539 5538 5536 5534 5532 5531 5530 5528 5528 5527 5526 5526 5526 5525 5525 5524 5524 5524 5523 5524 5525 5526 5528 5529 5529 5531 5532
5584 5582 5581 5580 5578 5578 5577 5575 5575 5574 5573 5572 5571 5570 5568 5569 5569 5568 5566 5566 5565 5563 5562 5562 5561 5560 5559 5558 5557 5557 5556 5555 5555 5555 5554 5552 5551 5550 5549 5549 5549 5548 5548 5548 5547 5546 5545 5544 5543 5542 5542 5542 5542 5542 5541 5540 5539 5537 5535 5534 5532 5530 5528 5527 5526 5525 5524 5523 5523 5522 5522 5522 5522 5521 5521 5521 5521 5521 5521 5523 5525 5526 5526 5527 5528
5576 5574 5573 5572 5571 5570 5569 5568 5567 5566 5566 5565 5564 5562 5561 5562 5562 5560 5559 5558 5557 5556 5555 5555 5554 5553 5552 5551 5550 5550 5549 5549 5548 5548 5547 5546 5546 5545 5544 5543 5542 5542 5543 5543 5542 5541 5540 5539 5538 5537 5537 5538 5538 5538 5537 5536 5535 5533 5531 5530 5528 5526 5525 5524 5523 5522 5521 5520 5519 5519 5519 5519 5519 5519 5518 5518 5518 5518 5519 5520 5522 5523 5523 5524 5525
5568 5566 5565 5564 5563 5562 5561 5560 5559 5558 5558 5557 5556 5555 5554 5555 5555 5554 5552 5551 5551 5549 5548 5546 5546 5546 5545 5544 5543 5543 5543 5542 5542 5541 5540 5539 5539 5539 5539 5538 5537 5537 5538 5538 5537 5536 5535 5534 5533 5532 5533 5533 5533 5533 5533 5532 5531 5530 5528 5526 5524 5522 5521 5520 5519 5518 5517 5517 5516 5516 5515 5516 5516 5516 5515 5515 5516 5516 5516 5517 5518 5519 5520 5520 5522
5561 5560 5558 5557 5556 5555 5554 5554 5553 5552 5551 5550 5549 5548 5547 5547 5548 5548 5546 5545 5543 5542 5540 5539 5538 5538 5538 5538 5537 5536 5536 5535 5534 5534 5533 5532 5532 5532 5532 5531 5531 5531 5531 5531 5531 5530 5529 5528 5528 5528 5528 5529 5529 5529 5529 5528 5527 5526 5524 5523 5521 5519 5517 5516 5515 5514 5514 5513 5513 5513 5513 5513 5513 5513 5513 5513 5513 5513 5514 5514 5514 5515 5516 5517 5518